Regional Weather Roundup
Issued by NWS Charleston, SC

Current Version | Previous Version | Graphics & Text | Print | Product List | Glossary On
Versions: 1 2 3 4 5 6 7 8 9 10 11 12 13 14 15 16 17 18 19 20 21 22 23 24 25 26 27 28 29 30 31 32 33 34 35 36 37 38 39 40 41 42 43 44 45 46 47 48 49 50
000 ASUS42 KCHS 281027 RWRCHS REGIONAL WEATHER ROUNDUP NATIONAL WEATHER SERVICE CHARLESTON SC 500 AM EST SAT FEB 28 2015 NOTE: "FAIR" INDICATES FEW OR NO CLOUDS BELOW 12,000 FEET WITH NO SIGNIFICANT WEATHER AND/OR OBSTRUCTIONS TO VISIBILITY. NOT ALL STATIONS ARE QUALITY CONTROLLED BY THE NATIONAL WEATHER SERVICE. USE DATA WITH CAUTION...ESPECIALLY DEWPOINT OBSERVATIONS. SCZ027-030-031-034>040-042>050-281100- ...SOUTHEAST SOUTH CAROLINA... CITY SKY/WX TMP DP RH WIND PRES REMARKS N CHARLESTON MOCLDY 39 35 86 NE9 30.51R WCI 33 WATERFRONT PRK N/A 43 N/A N/A N13 N/A MOUNT PLEASANT LGT RAIN 39 37 93 N3 30.52R PINOPOLIS N/A 39 36 87 E13 30.43R WCI 32 MONCKS CORNER FAIR 37 34 87 NE6 30.53R HAZE WCI 33 SUMMERVILLE FAIR 36 36 100 N6 30.53R WCI 31 BEAUFORT MCAS CLOUDY 43 36 76 NE12 30.48R BEAUFORT ARPT PTSUNNY 43 39 87 NE16 30.47R HILTON HEAD IS NOT AVBL WALTERBORO PTSUNNY 39 36 87 N3 30.53R ALLENDALE FAIR 39 36 87 VRB6 30.51R WCI 35 ...SOUTHERN MIDLANDS AND PEE DEE... CITY SKY/WX TMP DP RH WIND PRES REMARKS GEORGETOWN NOT AVBL KINGSTREE NOT AVBL ORANGEBURG MOCLDY 37 28 70 NE7 30.53R WCI 32 BARNWELL FAIR 37 34 87 NE7 30.53R WCI 32 AIKEN FAIR 34 32 93 NE8 30.56R WCI 27 MANNING FAIR 36 30 80 NE6 30.54R WCI 31 COLUMBIA PTCLDY 38 24 57 NE8 30.56R WCI 32 SUMTER PTCLDY 32 27 79 NE10 30.54R WCI 24 FLORENCE PTCLDY 33 26 75 NE10 30.57R WCI 25 MYRTLE BEACH MOCLDY 36 30 80 N12 30.57R WCI 27 N MYRTLE BEACH MOCLDY 34 29 82 NE13 30.55R WCI 25 $$ GAZ063-065-086>088-099>101-113>116-118-119-134>141-150-281100- ...SOUTHEAST GEORGIA... CITY SKY/WX TMP DP RH WIND PRES REMARKS SAVANNAH ARPT CLOUDY 44 36 73 NE9 30.45R HUNTER AAF CLOUDY 46 38 73 NE6 30.42R FORT STEWART CLOUDY 45 37 74 NE10 30.40F STATESBORO MOCLDY 40 37 89 NE6 30.47S WCI 35 SYLVANIA PTSUNNY 39 37 91 E9 30.49R WCI 33 CLAXTON CLOUDY 43 37 81 NE9 30.45S ...CSRA...CENTRAL AND FAR SOUTHEAST GEORGIA... CITY SKY/WX TMP DP RH WIND PRES REMARKS THOMSON CLEAR 35 35 100 NE5 30.57R WCI 31 AUGUSTA-BUSH PTCLDY 35 33 92 N5 30.52R WCI 31 AUGUSTA-DANIEL PTCLDY 40 32 73 NE10 30.52R WCI 33 SWAINSBORO FAIR 39 32 75 NE6 30.48R WCI 35 VIDALIA MOCLDY 41 36 81 NE7 30.44F EASTMAN FAIR 38 38 100 NE5 30.47F WCI 35 HAZLEHURST CLOUDY 43 39 84 NE7 30.42R ALMA CLOUDY 45 35 68 NE6 30.41S WAYCROSS CLOUDY 49 41 74 NE6 30.40R JESUP CLOUDY 50 41 71 E8G16 30.42R BAXLEY CLOUDY 45 36 70 NE9 30.41S BRUNSWICK CLOUDY 50 43 76 NE13 30.40R SAINT SIMONS CLOUDY 50 43 77 NE17G26 30.37F $$ SCZ027-028-034-036>038-045-046-048>050-GAZ119-141-281100- ...LAKE AND SUPPLEMENTAL COASTAL OBSERVATIONS... STATION/POSITION TIME TEMP WIND PRES WAVE SWELL AIR SEA DIR/SP/G HT/PER HT/PER/DIR (UTC) (F) (DEG/KT/KT) (MB) (FT/S) (FT/S/D) UPR LAKE MARION NOT AVBL WINYAH BAY 0900 43 40/ 12 1031.0F LAKE MURRAY 0900 36 30/ 4/ 6 1033.2R ACE BASIN NERRS NOT AVBL FORT PULASKI 1000 47 49 40/ 16/ 20 1031.1R SAPELO ISLAND 1000 49 30/ 14 1029.0S $$ ANZ835-935-AMZ111-154-330-350-352-354-370-450-454-472-281100- ...C-MAN AND BUOY OBSERVATIONS... STATION/POSITION TIME TEMP WIND PRES WAVE SWELL AIR SEA DIR/SP/G HT/PER HT/PER/DIR (UTC) (F) (DEG/KT/KT) (MB) (FT/S) (FT/S/D) BUOY 41004 0950 56 65 50/ 23/ 27 1030.0R 7/ 6 3/11 BUOY 41008 0950 52 52 30/ 21/ 25 1028.2R 6/ 6 2/ 90/11 FOLLY BEACH CMAN 1000 45 30/ 19/ 22 1032.7R CAPERS NEARSHORE NOT AVBL FRIPP NEARSHORE 0900 48 40/ 19/ 21 1029.4R STATION/POSITION TIME TEMP WIND PRES WAVE SWELL AIR SEA DIR/SP/G HT/PER HT/PER/DIR (UTC) (F) (DEG/KT/KT) (MB) (FT/S) (FT/S/D) 5E ST. MARYS GA 0921 53 N/A 5/ 7 2/ 90/11 FRYING PAN BUOY 0950 47 63 40/ 23/ 27 1033.2R 6/ 6 2/100/11 BUOY 41025 NOT AVBL CAPE LOOKOUT NC 1000 34 20/ 18/ 22 1035.7R BUOY 41002 0950 66 70 40/ 19/ 23 1028.4R 10/10 5/350/10 BUOY 41010 0920 67 71 70/ 19/ 23 1024.2R ST AUGUSTINE FL 1000 56 360/ 16/ 20 1026.7F $$

USA.gov is the U.S. government's official web portal to all federal, state and local government web resources and services.